Location: Nianha
(10.8000°N, 4.6333°W)
Time: 02:52:42
(UTC+00:00)

PAYLOAD A - Pass Details

Date: 14 November 2019
Orbit: 691 x 832 km, 98.3° (Epoch: 17 January)

Event Time Altitude Azimuth Distance (km) Brightness Sun altitude
Rises 04:35:03 0° 2° (N) 3,349 7.2 -24.0°
Enters shadow 04:35:52 - 1° (N) 3,032 6.9 -23.8°
Exits shadow 04:42:51 48° 276° (W) 1,076 4.3 -22.2°
Drops below altitude 10° 04:47:50 10° 210° (SSW) 2,427 6.4 -21.0°
Sets 04:50:15 0° 205° (SSW) 3,352 7.2 -20.4°
